Location: Rounton
(54.4000°N, 1.3500°W)
Time: 14:16:31
(UTC+00:00)

Transit 4A - Pass Details

Date: 07 December 2021
Orbit: 864 x 981 km, 66.8° (Epoch: 20 January)

Event Time Altitude Azimuth Distance (km) Brightness Sun altitude
Rises 20:34:59 0° 247° (WSW) 3,488 11.4 -40.9°
Reaches altitude 10° 20:37:34 10° 253° (WSW) 2,567 10.7 -41.3°
Enters shadow 20:39:32 21° 263° (W) 1,917 9.9 -41.6°
Maximum altitude 20:43:16 46° 326° (NNW) 1,219 - -42.1°
Drops below altitude 10° 20:49:11 10° 39° (NE) 2,655 - -42.9°
Sets 20:51:54 0° 46° (NE) 3,620 - -43.2°
